| time (UTC) | temp F | wind direction | speed MPH | gust MPH | rain 1hr in | rain 24hr in | rain mn in | humidity % | barometer mb |
| 20260506211234 | 59 | 136 | 0.0 | 1.0 | 0.04 | 0.13 | 0.13 | 96 | 1008.2 |
| 20260506210727 | 59 | 200 | 0.0 | 0.0 | 0.05 | 0.13 | 0.13 | 96 | 1008.2 |
| 20260506205716 | 59 | 211 | 0.0 | 1.0 | 0.06 | 0.13 | 0.13 | 95 | 1008.1 |
| 20260506205209 | 59 | 215 | 0.0 | 4.0 | 0.06 | 0.13 | 0.13 | 95 | 1008.1 |
| 20260506204703 | 59 | 212 | 0.0 | 4.0 | 0.06 | 0.13 | 0.13 | 95 | 1008.2 |
| 20260506204158 | 59 | 214 | 0.0 | 1.0 | 0.07 | 0.13 | 0.13 | 95 | 1008.3 |
| 20260506203146 | 60 | 146 | 0.0 | 0.0 | 0.07 | 0.12 | 0.12 | 95 | 1008.2 |
| 20260506202639 | 59 | 228 | 0.0 | 0.0 | 0.07 | 0.11 | 0.11 | 95 | 1008.4 |
| 20260506202134 | 59 | 219 | 0.0 | 0.0 | 0.07 | 0.11 | 0.11 | 95 | 1008.5 |
| 20260506201628 | 59 | 172 | 0.0 | 1.0 | 0.06 | 0.10 | 0.10 | 95 | 1008.5 |
| 20260506201121 | 59 | 206 | 0.0 | 1.0 | 0.06 | 0.09 | 0.09 | 95 | 1008.5 |
| 20260506200615 | 59 | 171 | 0.0 | 0.0 | 0.05 | 0.08 | 0.08 | 94 | 1008.5 |
| 20260506200109 | 59 | 162 | 0.0 | 0.0 | 0.05 | 0.08 | 0.08 | 94 | 1008.7 |
| 20260506195057 | 59 | 212 | 0.0 | 5.0 | 0.04 | 0.07 | 0.07 | 94 | 1008.8 |
| 20260506194551 | 60 | 228 | 0.0 | 0.0 | 0.03 | 0.06 | 0.07 | 94 | 1008.9 |
| 20260506193539 | 60 | 164 | 0.0 | 5.0 | 0.02 | 0.05 | 0.06 | 93 | 1008.8 |
| 20260506193034 | 59 | 200 | 0.0 | 3.0 | 0.02 | 0.05 | 0.05 | 93 | 1009.0 |
| 20260506192527 | 59 | 211 | 0.0 | 1.0 | 0.01 | 0.04 | 0.04 | 92 | 1009.0 |
| 20260506192022 | 59 | 213 | 0.0 | 0.0 | 0.01 | 0.04 | 0.04 | 92 | 1008.9 |
| 20260506191515 | 60 | 197 | 0.0 | 1.0 | 0.01 | 0.04 | 0.04 | 92 | 1009.0 |
| 20260506190503 | 60 | 229 | 0.0 | 1.0 | 0.00 | 0.03 | 0.03 | 92 | 1009.0 |
| 20260506185958 | 59 | 149 | 0.0 | 1.0 | 0.00 | 0.03 | 0.03 | 92 | 1009.0 |
| 20260506185457 | 59 | 240 | 0.0 | 4.0 | 0.00 | 0.03 | 0.03 | 92 | 1009.1 |
| 20260506184956 | 59 | 198 | 0.0 | 4.0 | 0.00 | 0.03 | 0.03 | 91 | 1009.1 |
| 20260506184456 | 59 | 215 | 0.0 | 2.0 | 0.01 | 0.03 | 0.03 | 92 | 1009.2 |
| 20260506183953 | 59 | 134 | 0.0 | 6.0 | 0.01 | 0.03 | 0.03 | 92 | 1009.1 |
| 20260506183452 | 59 | 165 | 0.0 | 6.0 | 0.01 | 0.03 | 0.03 | 91 | 1009.2 |
| 20260506182949 | 59 | 219 | 0.0 | 3.0 | 0.01 | 0.03 | 0.03 | 91 | 1009.4 |
| 20260506182447 | 60 | 214 | 0.0 | 2.0 | 0.01 | 0.03 | 0.03 | 92 | 1009.3 |
| 20260506181949 | 60 | 189 | 0.0 | 6.0 | 0.01 | 0.03 | 0.03 | 92 | 1009.4 |
| 20260506181448 | 60 | 167 | 0.0 | 6.0 | 0.01 | 0.03 | 0.03 | 92 | 1009.6 |
| 20260506180945 | 60 | 231 | 0.0 | 4.0 | 0.01 | 0.03 | 0.03 | 91 | 1009.5 |
| 20260506180444 | 60 | 151 | 0.0 | 3.0 | 0.02 | 0.03 | 0.03 | 91 | 1009.6 |
| 20260506175946 | 60 | 155 | 0.0 | 3.0 | 0.02 | 0.03 | 0.03 | 91 | 1009.7 |
| 20260506175445 | 60 | 221 | 0.0 | 3.0 | 0.02 | 0.03 | 0.03 | 91 | 1009.7 |
| 20260506174446 | 60 | 193 | 0.0 | 3.0 | 0.02 | 0.02 | 0.02 | 90 | 1009.7 |
| 20260506173946 | 60 | 142 | 0.0 | 0.0 | 0.02 | 0.02 | 0.02 | 91 | 1009.5 |
| 20260506172946 | 60 | 195 | 0.0 | 1.0 | 0.02 | 0.02 | 0.02 | 90 | 1009.4 |
| 20260506172444 | 61 | 257 | 0.0 | 1.0 | 0.02 | 0.02 | 0.02 | 89 | 1009.5 |
| 20260506171945 | 61 | 200 | 0.0 | 1.0 | 0.02 | 0.02 | 0.02 | 88 | 1009.4 |
| 20260506171444 | 62 | 188 | 0.0 | 0.0 | 0.02 | 0.02 | 0.02 | 88 | 1009.6 |
| 20260506170945 | 62 | 251 | 0.0 | 1.0 | 0.02 | 0.02 | 0.02 | 87 | 1009.6 |
| 20260506165945 | 62 | 212 | 0.0 | 0.0 | 0.01 | 0.01 | 0.01 | 86 | 1009.9 |
| 20260506164942 | 63 | 186 | 0.0 | 0.0 | 0.00 | 0.00 | 0.00 | 84 | 1010.1 |
| 20260506164443 | 63 | 160 | 0.0 | 0.0 | 0.00 | 0.00 | 0.00 | 83 | 1010.3 |
| 20260506163943 | 64 | 153 | 0.0 | 0.0 | 0.00 | 0.00 | 0.00 | 82 | 1010.7 |
| 20260506163442 | 64 | 212 | 0.0 | 0.0 | 0.00 | 0.00 | 0.00 | 81 | 1010.7 |
| 20260506162944 | 64 | 217 | 0.0 | 1.0 | 0.00 | 0.00 | 0.00 | 80 | 1010.6 |
| 20260506162442 | 64 | 200 | 0.0 | 1.0 | 0.00 | 0.00 | 0.00 | 80 | 1010.6 |
| 20260506161941 | 64 | 218 | 0.0 | 0.0 | 0.00 | 0.00 | 0.00 | 80 | 1010.6 |
| 20260506161441 | 64 | 201 | 0.0 | 0.0 | 0.00 | 0.00 | 0.00 | 80 | 1010.5 |
| 20260506160441 | 64 | 231 | 0.0 | 0.0 | 0.00 | 0.00 | 0.00 | 79 | 1010.6 |
| 20260506155941 | 65 | 183 | 0.0 | 0.0 | 0.00 | 0.00 | 0.00 | 79 | 1010.7 |
| 20260506155442 | 65 | 207 | 0.0 | 1.0 | 0.00 | 0.00 | 0.00 | 79 | 1010.8 |
| 20260506154941 | 65 | 231 | 0.0 | 2.0 | 0.00 | 0.00 | 0.00 | 78 | 1010.8 |
| 20260506154442 | 65 | 195 | 0.0 | 2.0 | 0.00 | 0.00 | 0.00 | 77 | 1010.9 |
| 20260506153437 | 66 | 146 | 0.0 | 0.0 | 0.00 | 0.00 | 0.00 | 76 | 1010.9 |
| 20260506152937 | 66 | 165 | 0.0 | 2.0 | 0.00 | 0.00 | 0.00 | 77 | 1011.0 |
| 20260506152438 | 66 | 206 | 0.0 | 3.0 | 0.00 | 0.00 | 0.00 | 76 | 1011.0 |
| 20260506151935 | 66 | 207 | 0.0 | 3.0 | 0.00 | 0.00 | 0.00 | 76 | 1010.9 |
| 20260506151436 | 66 | 218 | 0.0 | 1.0 | 0.00 | 0.00 | 0.00 | 76 | 1011.0 |
| 20260506150935 | 66 | 171 | 0.0 | 2.0 | 0.00 | 0.00 | 0.00 | 76 | 1011.0 |
| 20260506150434 | 66 | 216 | 0.0 | 2.0 | 0.00 | 0.00 | 0.00 | 77 | 1010.9 |
| 20260506145932 | 65 | 202 | 0.0 | 2.0 | 0.00 | 0.00 | 0.00 | 77 | 1010.9 |
| 20260506144932 | 65 | 185 | 0.0 | 2.0 | 0.00 | 0.00 | 0.00 | 77 | 1010.9 |
| 20260506143930 | 65 | 139 | 0.0 | 2.0 | 0.00 | 0.00 | 0.00 | 77 | 1010.9 |
| 20260506143426 | 65 | 226 | 0.0 | 2.0 | 0.00 | 0.00 | 0.00 | 77 | 1010.9 |
| 20260506142926 | 65 | 212 | 0.0 | 7.0 | 0.00 | 0.00 | 0.00 | 77 | 1010.9 |
| 20260506142426 | 65 | 207 | 0.0 | 7.0 | 0.00 | 0.00 | 0.00 | 77 | 1011.0 |
| 20260506141425 | 65 | 150 | 0.0 | 6.0 | 0.00 | 0.00 | 0.00 | 77 | 1011.1 |
| 20260506140425 | 65 | 201 | 0.0 | 2.0 | 0.00 | 0.00 | 0.00 | 79 | 1011.1 |
| 20260506135925 | 64 | 188 | 0.0 | 4.0 | 0.00 | 0.00 | 0.00 | 78 | 1011.1 |
| 20260506135425 | 64 | 221 | 1.0 | 4.0 | 0.00 | 0.00 | 0.00 | 78 | 1010.8 |
| 20260506134924 | 64 | 246 | 0.0 | 4.0 | 0.00 | 0.00 | 0.00 | 79 | 1010.8 |
| 20260506134424 | 64 | 227 | 0.0 | 4.0 | 0.00 | 0.00 | 0.00 | 78 | 1010.8 |
| 20260506133925 | 64 | 148 | 1.0 | 5.0 | 0.00 | 0.00 | 0.00 | 80 | 1010.9 |
| 20260506132924 | 63 | 104 | 0.0 | 3.0 | 0.00 | 0.00 | 0.00 | 80 | 1011.0 |
| 20260506132425 | 63 | 224 | 0.0 | 3.0 | 0.00 | 0.00 | 0.00 | 81 | 1011.1 |
| 20260506131925 | 0 | 0.0 | 0.0 | 0.00 | 0.00 | 0.00 | 1010.9 | ||
| 20260506130918 | 0 | 0.0 | 0.0 | 0.00 | 0.00 | 0.00 | 1010.9 | ||
| 20260506130416 | 0 | 0.0 | 0.0 | 0.00 | 0.00 | 0.00 | 1011.1 | ||
| 20260506125321 | 0 | 0.0 | 0.0 | 0.00 | 0.00 | 0.00 | 1011.1 | ||
| 20260506124821 | 0 | 0.0 | 0.0 | 0.00 | 0.00 | 0.00 | 1011.0 | ||
| 20260506124314 | 0 | 0.0 | 0.0 | 0.00 | 0.00 | 0.00 | 1011.1 | ||
| 20260506123718 | 0 | 0.0 | 0.0 | 0.00 | 0.00 | 0.00 | 1011.1 | ||
| 20260506123128 | 0 | 0.0 | 0.0 | 0.00 | 0.00 | 0.00 | 1011.1 | ||
| 20260506122617 | 0 | 0.0 | 0.0 | 0.00 | 0.00 | 0.00 | 1011.2 | ||
| 20260506122021 | 0 | 0.0 | 0.0 | 0.00 | 0.00 | 0.00 | 1011.3 | ||
| 20260506121519 | 0 | 0.0 | 0.0 | 0.00 | 0.00 | 0.00 | 1011.3 | ||
| 20260506120927 | 0 | 0.0 | 0.0 | 0.00 | 0.00 | 0.00 | 1011.6 | ||
| 20260506120423 | 0 | 0.0 | 0.0 | 0.00 | 0.00 | 0.00 | 1011.6 | ||
| 20260506115920 | 0 | 0.0 | 0.0 | 0.00 | 0.00 | 0.00 | 1011.6 | ||
| 20260506115417 | 0 | 0.0 | 0.0 | 0.00 | 0.00 | 0.00 | 1011.4 | ||
| 20260506114917 | 0 | 0.0 | 0.0 | 0.00 | 0.00 | 0.00 | 1011.2 | ||
| 20260506114325 | 0 | 0.0 | 0.0 | 0.00 | 0.00 | 0.00 | 1011.2 | ||
| 20260506113817 | 0 | 0.0 | 0.0 | 0.00 | 0.00 | 0.00 | 1011.4 | ||
| 20260506113317 | 0 | 0.0 | 0.0 | 0.00 | 0.00 | 0.00 | 1011.2 | ||
| 20260506112718 | 0 | 0.0 | 0.0 | 0.00 | 0.00 | 0.00 | 1011.3 | ||
| 20260506112217 | 0 | 0.0 | 0.0 | 0.00 | 0.00 | 0.00 | 1011.4 | ||
| 20260506111628 | 0 | 0.0 | 0.0 | 0.00 | 0.00 | 0.00 | 1011.5 | ||
| 20260506111120 | 0 | 0.0 | 0.0 | 0.00 | 0.00 | 0.00 | 1011.5 | ||
| 20260506110620 | 0 | 0.0 | 0.0 | 0.00 | 0.00 | 0.00 | 1011.6 | ||
| 20260506110119 | 0 | 0.0 | 0.0 | 0.00 | 0.00 | 0.00 | 1011.6 | ||
| 20260506105525 | 0 | 0.0 | 0.0 | 0.00 | 0.00 | 0.00 | 1011.4 | ||
| 20260506105026 | 0 | 0.0 | 0.0 | 0.00 | 0.00 | 0.00 | 1011.4 | ||
| 20260506104011 | 0 | 0.0 | 0.0 | 0.00 | 0.00 | 0.00 | 1011.6 | ||
| 20260506103416 | 0 | 0.0 | 0.0 | 0.00 | 0.00 | 0.00 | 1011.5 | ||
| 20260506102824 | 0 | 0.0 | 0.0 | 0.00 | 0.00 | 0.00 | 1011.5 | ||
| 20260506102321 | 0 | 0.0 | 0.0 | 0.00 | 0.00 | 0.00 | 1011.4 | ||
| 20260506101819 | 0 | 0.0 | 0.0 | 0.00 | 0.00 | 0.00 | 1011.2 | ||
| 20260506101319 | 0 | 0.0 | 0.0 | 0.00 | 0.00 | 0.00 | 1011.1 | ||
| 20260506100813 | 0 | 0.0 | 0.0 | 0.00 | 0.00 | 0.00 | 1011.4 | ||
| 20260506100222 | 0 | 0.0 | 0.0 | 0.00 | 0.00 | 0.00 | 1011.4 | ||
| 20260506095718 | 0 | 0.0 | 0.0 | 0.00 | 0.00 | 0.00 | 1011.4 | ||
| 20260506095216 | 0 | 0.0 | 0.0 | 0.00 | 0.00 | 0.00 | 1011.3 | ||
| 20260506093626 | 0 | 0.0 | 0.0 | 0.00 | 0.00 | 0.00 | 1011.2 | ||
| 20260506093106 | 0 | 0.0 | 0.0 | 0.00 | 0.00 | 0.00 | 1011.2 | ||
| 20260506092517 | 0 | 0.0 | 0.0 | 0.00 | 0.00 | 0.00 | 1011.1 | ||
| 20260506092019 | 0 | 0.0 | 0.0 | 0.00 | 0.00 | 0.00 | 1011.1 | ||
| 20260506091428 | 0 | 0.0 | 0.0 | 0.00 | 0.00 | 0.00 | 1011.2 | ||
| 20260506090412 | 0 | 0.0 | 0.0 | 0.00 | 0.00 | 0.00 | 1011.2 | ||
| 20260506085913 | 0 | 0.0 | 0.0 | 0.00 | 0.00 | 0.00 | 1011.3 | ||
| 20260506085321 | 0 | 0.0 | 0.0 | 0.00 | 0.00 | 0.00 | 1011.4 | ||
| 20260506084728 | 0 | 0.0 | 0.0 | 0.00 | 0.00 | 0.00 | 1011.4 | ||
| 20260506084210 | 0 | 0.0 | 0.0 | 0.00 | 0.00 | 0.00 | 1011.5 | ||
| 20260506083617 | 0 | 0.0 | 0.0 | 0.00 | 0.00 | 0.00 | 1011.5 | ||
| 20260506083117 | 0 | 0.0 | 0.0 | 0.00 | 0.00 | 0.00 | 1011.6 | ||
| 20260506082024 | 0 | 0.0 | 0.0 | 0.00 | 0.00 | 0.00 | 1011.5 | ||
| 20260506081520 | 0 | 0.0 | 0.0 | 0.00 | 0.00 | 0.00 | 1011.5 | ||
| 20260506081018 | 0 | 0.0 | 0.0 | 0.00 | 0.00 | 0.00 | 1011.6 | ||
| 20260506080517 | 0 | 0.0 | 0.0 | 0.00 | 0.00 | 0.00 | 1011.4 | ||
| 20260506073315 | 59 | 225 | 0.0 | 0.0 | 0.00 | 0.00 | 0.00 | 82 | 1011.6 |
| 20260506072751 | 59 | 239 | 0.0 | 0.0 | 0.00 | 0.00 | 0.00 | 82 | 1011.7 |
| 20260506072253 | 59 | 198 | 0.0 | 0.0 | 0.00 | 0.00 | 0.00 | 82 | 1011.6 |
| 20260506071752 | 60 | 203 | 0.0 | 2.0 | 0.00 | 0.00 | 0.00 | 82 | 1011.7 |
| 20260506070751 | 60 | 199 | 0.0 | 2.0 | 0.00 | 0.00 | 0.00 | 81 | 1011.5 |
| 20260506070250 | 60 | 214 | 0.0 | 1.0 | 0.00 | 0.00 | 0.00 | 81 | 1011.5 |
| 20260506062208 | 60 | 211 | 0.0 | 0.0 | 0.00 | 0.00 | 0.00 | 79 | 1011.5 |
| 20260506061702 | 60 | 203 | 0.0 | 1.0 | 0.00 | 0.00 | 0.00 | 79 | 1011.6 |
| 20260506061155 | 60 | 217 | 0.0 | 1.0 | 0.00 | 0.00 | 0.00 | 78 | 1011.6 |
| 20260506060650 | 60 | 201 | 0.0 | 0.0 | 0.00 | 0.00 | 0.00 | 78 | 1011.4 |
| 20260506060144 | 61 | 197 | 0.0 | 1.0 | 0.00 | 0.00 | 0.00 | 78 | 1011.6 |
| 20260506051043 | 63 | 217 | 0.0 | 4.0 | 0.00 | 0.00 | 0.00 | 73 | 1012.0 |
| 20260506045019 | 63 | 212 | 0.0 | 0.0 | 0.00 | 0.00 | 0.00 | 72 | 1012.2 |
| 20260506044514 | 63 | 165 | 0.0 | 0.0 | 0.00 | 0.00 | 0.00 | 72 | 1012.2 |
| 20260506044008 | 63 | 221 | 0.0 | 0.0 | 0.00 | 0.00 | 0.00 | 72 | 1012.2 |
| 20260506043501 | 63 | 204 | 0.0 | 2.0 | 0.00 | 0.00 | 0.00 | 71 | 1012.2 |
| 20260506042954 | 63 | 217 | 0.0 | 2.0 | 0.00 | 0.00 | 0.00 | 71 | 1012.2 |
| 20260506042447 | 63 | 221 | 0.0 | 2.0 | 0.00 | 0.00 | 0.00 | 71 | 1012.0 |
| 20260506041942 | 64 | 214 | 0.0 | 0.0 | 0.00 | 0.00 | 0.00 | 70 | 1012.1 |
| 20260506041440 | 64 | 205 | 0.0 | 3.0 | 0.00 | 0.00 | 0.00 | 70 | 1012.2 |
| 20260506040938 | 64 | 216 | 0.0 | 3.0 | 0.00 | 0.00 | 0.00 | 70 | 1012.1 |
| 20260506040439 | 64 | 171 | 0.0 | 0.0 | 0.00 | 0.00 | 0.00 | 69 | 1012.1 |
| 20260506035941 | 65 | 203 | 0.0 | 3.0 | 0.00 | 0.00 | 0.00 | 69 | 1012.1 |
| 20260506035440 | 65 | 207 | 0.0 | 6.0 | 0.00 | 0.00 | 0.00 | 68 | 1012.1 |
| 20260506034440 | 65 | 211 | 0.0 | 2.0 | 0.00 | 0.00 | 0.00 | 68 | 1012.1 |
| 20260506033438 | 65 | 213 | 0.0 | 5.0 | 0.00 | 0.00 | 0.00 | 68 | 1012.0 |
| 20260506032439 | 65 | 194 | 0.0 | 4.0 | 0.00 | 0.00 | 0.00 | 69 | 1012.0 |
| 20260506031933 | 65 | 197 | 0.0 | 2.0 | 0.00 | 0.00 | 0.00 | 68 | 1011.9 |
| 20260506030932 | 65 | 204 | 0.0 | 3.0 | 0.00 | 0.00 | 0.00 | 68 | 1012.0 |
| 20260506025928 | 65 | 198 | 0.0 | 7.0 | 0.00 | 0.00 | 0.00 | 68 | 1011.9 |
| 20260506025427 | 65 | 210 | 1.0 | 7.0 | 0.00 | 0.00 | 0.00 | 68 | 1012.0 |
| 20260506024925 | 65 | 198 | 0.0 | 5.0 | 0.00 | 0.00 | 0.00 | 67 | 1011.9 |
| 20260506024424 | 65 | 237 | 0.0 | 3.0 | 0.00 | 0.00 | 0.00 | 68 | 1011.9 |
| 20260506023922 | 65 | 203 | 0.0 | 2.0 | 0.00 | 0.00 | 0.00 | 68 | 1011.9 |
| 20260506023423 | 65 | 226 | 0.0 | 2.0 | 0.00 | 0.00 | 0.00 | 68 | 1011.9 |
| 20260506022422 | 65 | 193 | 0.0 | 2.0 | 0.00 | 0.00 | 0.00 | 67 | 1012.0 |
| 20260506021922 | 65 | 211 | 0.0 | 2.0 | 0.00 | 0.00 | 0.00 | 67 | 1012.0 |
| 20260506021423 | 65 | 217 | 0.0 | 2.0 | 0.00 | 0.00 | 0.00 | 66 | 1011.9 |
| 20260506020921 | 65 | 116 | 0.0 | 3.0 | 0.00 | 0.00 | 0.00 | 66 | 1011.9 |
| 20260506020421 | 66 | 226 | 0.0 | 4.0 | 0.00 | 0.00 | 0.00 | 66 | 1012.0 |
| 20260506015921 | 66 | 218 | 0.0 | 4.0 | 0.00 | 0.00 | 0.00 | 66 | 1011.9 |
| 20260506015421 | 66 | 218 | 1.0 | 4.0 | 0.00 | 0.00 | 0.00 | 65 | 1011.9 |
| 20260506013902 | 66 | 205 | 0.0 | 6.0 | 0.00 | 0.00 | 0.00 | 65 | 1011.6 |
| 20260506013357 | 67 | 176 | 0.0 | 6.0 | 0.00 | 0.00 | 0.00 | 64 | 1011.5 |
| 20260506012851 | 67 | 220 | 0.0 | 3.0 | 0.00 | 0.00 | 0.00 | 64 | 1011.4 |
| 20260506011839 | 67 | 243 | 0.0 | 2.0 | 0.00 | 0.00 | 0.00 | 63 | 1011.4 |
| 20260506011333 | 67 | 243 | 0.0 | 4.0 | 0.00 | 0.00 | 0.00 | 62 | 1011.4 |
| 20260506010827 | 67 | 210 | 0.0 | 4.0 | 0.00 | 0.00 | 0.00 | 61 | 1011.2 |
| 20260506010321 | 67 | 219 | 0.0 | 3.0 | 0.00 | 0.00 | 0.00 | 61 | 1011.3 |
| 20260506005815 | 67 | 209 | 0.0 | 2.0 | 0.00 | 0.00 | 0.00 | 61 | 1011.1 |
| 20260506005306 | 67 | 219 | 0.0 | 3.0 | 0.00 | 0.00 | 0.00 | 61 | 1011.2 |
| 20260506004759 | 67 | 196 | 0.0 | 3.0 | 0.00 | 0.00 | 0.00 | 61 | 1011.2 |
| 20260506004256 | 67 | 183 | 0.0 | 1.0 | 0.00 | 0.00 | 0.00 | 62 | 1011.2 |
| 20260506003756 | 67 | 205 | 0.0 | 2.0 | 0.00 | 0.00 | 0.00 | 62 | 1011.0 |
| 20260506003255 | 67 | 217 | 0.0 | 3.0 | 0.00 | 0.00 | 0.00 | 63 | 1011.1 |
| 20260506002252 | 67 | 208 | 0.0 | 4.0 | 0.00 | 0.00 | 0.00 | 63 | 1011.0 |
| 20260506001753 | 67 | 218 | 0.0 | 2.0 | 0.00 | 0.00 | 0.00 | 62 | 1010.8 |
| 20260506001253 | 68 | 179 | 0.0 | 1.0 | 0.00 | 0.00 | 0.00 | 63 | 1010.8 |
| 20260506000252 | 68 | 165 | 0.0 | 3.0 | 0.00 | 0.00 | 0.00 | 62 | 1010.7 |
| 20260505235753 | 68 | 202 | 0.0 | 3.0 | 0.00 | 0.00 | 0.00 | 61 | 1010.6 |
| 20260505235250 | 68 | 209 | 0.0 | 1.0 | 0.00 | 0.00 | 0.00 | 61 | 1010.7 |
| 20260505234748 | 69 | 219 | 0.0 | 1.0 | 0.00 | 0.00 | 0.00 | 61 | 1010.5 |
| 20260505234246 | 69 | 210 | 0.0 | 2.0 | 0.00 | 0.00 | 0.00 | 60 | 1010.4 |
| 20260505233746 | 69 | 214 | 0.0 | 2.0 | 0.00 | 0.00 | 0.00 | 60 | 1010.3 |
| 20260505233246 | 69 | 210 | 0.0 | 2.0 | 0.00 | 0.00 | 0.00 | 60 | 1010.2 |
| 20260505232747 | 69 | 226 | 0.0 | 2.0 | 0.00 | 0.00 | 0.00 | 59 | 1010.2 |
| 20260505231747 | 70 | 180 | 0.0 | 0.0 | 0.00 | 0.00 | 0.00 | 58 | 1010.1 |
| 20260505230744 | 70 | 223 | 0.0 | 1.0 | 0.00 | 0.00 | 0.00 | 58 | 1009.8 |
| 20260505230244 | 70 | 105 | 0.0 | 2.0 | 0.00 | 0.00 | 0.00 | 57 | 1010.0 |
| 20260505225745 | 71 | 200 | 0.0 | 2.0 | 0.00 | 0.00 | 0.00 | 58 | 1009.8 |
| 20260505225243 | 71 | 174 | 0.0 | 0.0 | 0.00 | 0.00 | 0.00 | 57 | 1009.8 |
| 20260505224741 | 71 | 208 | 0.0 | 1.0 | 0.00 | 0.00 | 0.00 | 57 | 1009.7 |
| 20260505224240 | 72 | 167 | 0.0 | 2.0 | 0.00 | 0.00 | 0.00 | 56 | 1009.6 |
| 20260505223740 | 72 | 157 | 0.0 | 2.0 | 0.00 | 0.00 | 0.00 | 56 | 1009.5 |
| 20260505223240 | 72 | 229 | 0.0 | 3.0 | 0.00 | 0.00 | 0.00 | 54 | 1009.5 |
| 20260505222740 | 72 | 234 | 0.0 | 4.0 | 0.00 | 0.00 | 0.00 | 56 | 1009.5 |
| 20260505222240 | 73 | 212 | 0.0 | 4.0 | 0.00 | 0.00 | 0.00 | 55 | 1009.5 |
| 20260505221740 | 73 | 183 | 1.0 | 5.0 | 0.00 | 0.00 | 0.00 | 55 | 1009.5 |
| 20260505221241 | 73 | 232 | 1.0 | 6.0 | 0.00 | 0.00 | 0.00 | 54 | 1009.6 |
| 20260505215738 | 74 | 179 | 1.0 | 4.0 | 0.00 | 0.00 | 0.00 | 54 | 1009.8 |
| 20260505215239 | 74 | 259 | 1.0 | 4.0 | 0.00 | 0.00 | 0.00 | 53 | 1009.9 |
| 20260505214739 | 74 | 192 | 1.0 | 7.0 | 0.00 | 0.00 | 0.00 | 53 | 1009.8 |
| 20260505213737 | 74 | 200 | 1.0 | 10.0 | 0.00 | 0.00 | 0.00 | 54 | 1009.6 |
| 20260505213238 | 75 | 156 | 1.0 | 6.0 | 0.00 | 0.00 | 0.00 | 53 | 1009.6 |
| 20260505212738 | 75 | 180 | 1.0 | 5.0 | 0.00 | 0.00 | 0.00 | 52 | 1009.4 |
| 20260505211737 | 75 | 231 | 1.0 | 8.0 | 0.00 | 0.00 | 0.00 | 51 | 1009.4 |